Temp
9 9 9 9 9 9 10 10 10 10 10 10 10 10 10 10 9 9 9 9 9 9 9 8 8 8 8 8 8 9 8 8 8 8 8 7 8 8 8 8 9 9 9 9 9 9 9 9 9 9 9 9 9 9 9 9 9 9 9 9 9 9 9 9 9 9 9 9 9 9 9 8 8 8 9 9 9 9 9 9 8 8 8 8 8
9 9 9 9 9 9 9 10 10 10 10 10 10 10 10 10 9 8 9 9 9 9 9 8 8 7 7 7 8 8 8 8 8 7 7 7 7 7 7 8 8 8 8 8 8 9 9 9 9 9 9 9 9 9 9 9 9 9 9 9 8 8 8 8 9 9 9 9 9 9 8 8 8 8 8 9 9 9 9 8 8 8 8 8 8
9 9 9 9 9 9 9 10 10 10 10 10 10 9 10 10 8 8 8 8 9 9 8 8 7 7 7 7 7 8 8 8 8 7 7 7 6 6 7 7 8 8 8 8 8 8 9 9 9 9 10 9 9 9 9 9 8 9 9 9 8 8 8 8 8 8 8 9 9 9 8 8 8 9 8 9 9 9 9 8 8 8 8 9 9
8 9 9 9 9 9 9 10 10 10 10 10 10 9 9 10 9 8 8 8 8 8 8 7 7 7 7 7 7 8 8 7 7 7 7 7 6 6 6 6 7 7 8 8 8 8 9 9 9 9 10 9 9 9 9 8 8 9 9 9 8 8 8 8 8 8 8 9 9 8 8 8 8 8 8 9 9 9 9 9 8 8 9 9 9
8 8 9 9 9 9 9 10 10 10 9 10 10 9 9 9 9 8 8 7 7 8 7 7 7 8 8 8 8 7 8 8 7 7 7 7 6 6 6 6 6 6 7 8 8 8 9 9 9 9 9 9 9 9 9 8 8 8 9 9 9 8 8 8 8 8 8 9 9 8 8 8 8 8 8 8 9 9 9 8 8 8 8 9 9
8 8 8 9 9 9 10 10 10 10 10 9 9 9 8 9 9 9 8 7 7 7 7 7 7 8 8 8 8 7 8 8 7 7 7 7 7 6 6 6 6 6 6 7 8 8 9 9 9 9 9 9 9 9 8 8 8 8 9 9 9 8 8 8 8 8 8 8 8 8 8 8 8 8 8 8 8 8 9 8 8 8 8 9 9
8 8 8 9 10 10 10 10 10 10 10 9 9 9 9 8 8 8 8 7 7 7 7 7 7 7 7 8 8 7 7 7 7 7 7 7 6 6 6 6 6 6 6 7 8 8 8 9 9 9 9 9 9 9 8 8 8 8 8 9 9 8 8 8 8 8 8 8 8 8 8 8 8 8 8 8 9 8 9 8 8 8 8 9 9
8 8 8 9 10 10 10 9 9 10 9 9 9 9 9 8 8 8 8 7 7 7 7 7 7 7 7 8 8 8 8 7 8 8 8 7 7 6 6 6 6 6 6 7 8 8 8 8 9 9 9 9 9 8 8 8 8 8 8 8 9 8 8 8 8 8 8 8 8 8 8 8 8 8 8 8 9 9 9 9 8 8 8 8 9
8 8 8 9 10 10 10 9 9 9 9 9 9 9 9 9 8 8 7 7 7 7 6 6 7 7 7 7 8 8 8 8 8 8 8 7 7 6 6 6 6 6 6 7 8 8 8 8 9 9 9 9 8 8 8 8 8 8 8 8 8 8 8 8 8 7 8 8 8 8 8 8 8 8 8 8 9 9 9 9 8 8 8 8 9
8 9 8 8 9 10 10 10 9 9 9 9 9 9 9 8 8 8 7 7 7 7 7 7 6 6 7 7 7 8 8 8 8 8 8 8 7 7 6 6 6 6 6 7 8 8 8 8 8 9 9 9 8 8 8 8 8 8 8 8 8 8 8 8 8 7 8 8 8 8 8 8 8 8 8 8 8 9 9 9 8 8 8 8 8
8 9 9 9 9 9 10 10 10 10 9 9 9 9 9 8 8 8 7 7 7 7 7 7 7 7 6 7 7 8 8 8 8 9 8 8 8 7 7 7 7 7 6 7 8 8 8 8 8 8 9 8 8 8 8 8 8 8 8 8 8 8 8 8 8 8 8 8 8 8 8 8 8 8 8 8 8 8 8 8 8 8 8 8 8
9 8 9 9 9 9 10 10 10 10 9 9 9 9 9 8 8 8 7 7 7 7 7 7 7 7 6 7 7 7 8 8 8 9 9 8 9 8 8 8 8 7 7 8 8 8 8 8 8 8 9 8 8 8 8 8 8 8 8 8 8 8 8 8 8 8 7 8 8 8 8 8 8 8 8 8 8 8 8 8 8 8 8 8 8
9 9 9 9 9 9 9 9 9 9 9 9 9 8 8 8 8 8 8 7 7 7 7 8 7 7 7 7 7 7 8 8 8 9 9 9 9 9 8 8 8 8 8 8 9 9 8 8 8 8 9 9 8 8 8 8 8 8 8 8 8 8 8 8 8 7 7 8 8 8 8 8 8 8 8 8 8 8 8 8 8 8 8 8 8
9 9 9 9 9 9 9 9 9 9 9 9 9 8 8 8 8 8 8 7 7 7 7 8 8 8 7 7 7 8 8 8 8 8 9 9 9 9 9 9 9 9 9 9 9 9 9 9 8 8 9 9 8 8 8 8 8 8 8 8 8 8 8 8 8 7 8 8 8 8 8 8 8 8 8 8 8 8 8 8 8 8 8 8 8
8 9 9 9 9 9 9 9 9 9 9 9 8 8 8 8 8 8 8 8 7 7 7 8 8 8 8 7 7 8 8 8 8 8 9 8 8 9 9 9 9 9 9 9 9 9 9 9 9 9 9 9 9 8 8 8 8 8 8 8 8 8 8 8 8 8 8 8 8 8 8 8 8 8 8 8 8 8 8 8 8 8 8 8 8
8 8 8 8 8 8 8 9 9 9 8 8 8 8 8 8 8 8 8 8 8 7 7 8 8 8 8 7 7 8 8 8 8 8 8 8 8 8 9 10 9 9 9 9 9 9 9 9 9 9 9 9 9 8 8 8 8 8 8 8 8 8 8 8 8 8 8 8 7 7 8 8 8 8 8 8 8 8 8 8 8 8 8 8 8
8 8 8 8 8 8 8 8 8 8 8 8 8 8 8 8 8 7 7 7 7 7 7 8 8 8 7 7 7 7 7 7 8 8 8 8 7 8 10 10 9 9 9 9 9 9 9 9 9 9 9 9 9 9 8 8 8 8 8 8 8 8 8 8 8 8 8 8 7 7 7 8 8 8 8 8 8 8 8 8 8 8 8 8 8
8 8 8 8 8 8 8 8 8 8 8 8 8 8 8 8 7 7 7 7 7 7 7 7 7 7 7 6 7 7 7 7 7 8 8 8 7 8 9 9 9 9 9 9 9 9 9 9 9 9 9 9 9 9 9 8 8 8 8 7 7 8 8 8 8 8 8 8 7 7 7 8 8 8 8 8 8 8 8 8 8 8 8 8 8
9 8 8 8 8 8 8 8 8 8 8 8 8 8 8 7 7 7 7 7 7 7 7 7 7 7 6 6 6 6 6 6 7 8 8 7 7 8 8 9 9 9 9 9 9 9 9 9 9 9 9 9 9 9 9 8 8 8 8 8 8 8 7 8 8 8 8 8 7 7 7 7 8 8 8 8 8 8 8 8 8 8 8 8 8
9 9 9 8 8 8 8 8 8 8 8 8 8 8 7 7 7 7 7 7 7 6 6 6 6 6 6 6 6 6 6 6 6 6 7 7 7 8 8 8 8 8 8 8 9 9 9 9 9 9 9 9 9 9 9 9 8 8 8 8 8 8 7 7 8 8 8 8 7 7 7 7 7 8 8 8 7 8 8 8 8 8 8 8 8
8 8 9 8 8 8 8 8 8 8 8 8 8 7 7 7 7 7 7 6 6 6 6 6 6 6 6 5 6 5 5 5 5 5 6 7 7 7 7 7 7 7 7 8 8 9 9 9 9 9 9 9 9 9 9 9 8 8 8 8 8 8 7 7 7 8 8 8 7 8 7 7 7 7 8 7 7 7 7 8 8 8 8 8 8
8 8 8 8 8 8 8 8 8 8 8 8 7 7 7 7 7 7 6 6 6 6 6 6 6 6 5 5 5 5 5 5 5 5 5 6 6 6 6 6 6 7 7 7 8 8 9 9 9 9 9 9 9 9 9 9 9 8 8 8 8 8 8 8 7 8 8 8 7 8 7 7 7 7 7 7 7 7 7 7 8 8 8 8 7
8 8 8 8 8 8 8 8 8 8 8 8 7 7 7 7 6 6 6 6 6 6 6 5 5 5 5 5 5 5 5 5 5 5 5 5 6 6 6 6 6 6 6 7 7 8 8 9 9 9 9 9 9 9 9 9 8 8 8 8 8 8 8 8 8 8 8 8 7 8 7 7 7 7 7 7 7 7 7 7 7 7 7 7 7
8 8 8 8 7 7 8 8 8 8 8 7 7 7 7 6 6 6 6 6 6 6 5 5 5 5 5 5 5 4 4 5 5 5 5 5 6 6 6 6 6 6 6 6 7 8 8 8 9 9 9 9 9 9 9 9 8 8 8 8 8 8 8 8 8 8 8 7 7 8 7 7 7 7 7 7 7 7 7 7 7 7 7 7 7
8 8 8 8 7 7 7 8 8 7 7 7 7 7 6 6 6 6 6 6 6 5 5 5 5 5 5 4 4 4 4 4 4 5 5 5 5 6 6 6 6 6 6 6 7 7 8 8 8 9 9 9 9 8 8 8 8 8 8 8 8 8 8 8 7 8 8 7 7 7 7 7 7 7 7 7 7 7 7 7 7 7 7 7 7
8 8 7 7 7 7 7 7 7 7 7 7 7 6 6 6 6 6 6 5 5 5 5 5 5 5 4 4 4 4 4 4 4 4 4 5 5 5 5 6 6 6 6 6 6 7 7 7 8 8 8 9 8 8 8 8 8 8 8 8 8 8 8 7 7 8 8 7 7 7 7 7 7 7 7 7 7 7 7 7 7 7 7 7 7
8 8 7 6 7 7 7 7 7 7 7 7 7 7 6 6 6 6 6 5 6 5 5 5 5 5 5 5 5 4 4 4 4 4 4 4 5 5 5 5 6 5 5 6 6 6 6 7 7 7 8 8 8 8 8 8 8 8 8 8 8 8 8 7 7 8 8 7 7 7 7 7 7 7 7 7 7 7 7 7 7 7 7 7 7
8 8 7 6 6 7 7 7 6 6 7 7 7 7 6 6 6 6 6 6 6 5 5 5 5 5 5 5 5 5 4 4 4 4 4 4 5 5 5 5 5 5 5 6 6 6 6 6 6 6 7 8 8 8 8 8 8 8 8 8 8 8 8 7 7 8 8 7 7 7 7 7 7 7 7 7 7 7 7 7 7 7 7 7 7
8 7 7 7 6 6 6 6 6 6 6 7 7 7 7 6 6 6 6 6 6 6 5 5 5 5 5 5 5 5 5 4 4 4 5 5 5 5 5 5 5 5 5 5 6 6 6 6 6 6 6 7 8 8 8 8 8 8 8 8 8 8 8 8 8 8 8 7 7 7 7 7 7 7 7 7 7 7 7 7 7 7 7 7 7
7 7 7 7 6 6 6 6 6 6 6 6 7 7 7 6 6 6 6 6 6 6 5 5 5 5 5 5 5 5 5 4 4 5 5 5 5 5 5 5 5 5 5 5 5 5 5 6 6 6 6 6 7 7 8 8 8 8 8 8 8 8 8 8 8 8 8 8 7 7 7 7 7 7 7 7 7 7 7 7 7 7 7 7 7
7 7 7 6 6 6 6 6 6 6 6 6 7 7 6 6 6 6 6 6 6 6 5 5 5 5 5 5 5 5 5 5 4 4 5 5 4 5 5 5 5 4 4 4 5 5 5 5 5 5 6 6 6 7 7 8 8 8 8 8 8 8 8 8 8 8 8 8 8 7 7 7 7 7 7 7 7 7 7 7 7 7 7 7 8
7 7 6 6 6 6 6 6 6 6 6 6 6 6 6 6 6 6 6 6 5 5 5 5 5 5 5 4 4 5 5 5 4 4 4 4 4 5 5 5 4 4 4 4 4 4 4 4 4 5 5 5 6 6 6 7 8 8 8 8 8 8 8 8 8 8 8 8 8 8 8 8 8 8 8 8 7 7 7 7 7 8 8 8 8
6 6 6 6 6 6 6 6 6 6 6 6 6 6 6 6 6 6 6 5 5 5 5 5 5 5 5 5 4 4 4 4 4 4 4 4 4 4 4 4 4 3 3 4 4 4 4 4 4 4 5 5 5 5 6 6 7 8 8 8 8 8 8 8 8 8 8 8 8 8 8 8 8 8 8 8 8 8 8 8 8 8 8 8 8
6 5 5 6 6 6 6 6 6 6 6 6 6 6 6 6 6 6 6 5 5 5 5 5 5 5 5 5 4 4 4 4 4 4 4 4 4 4 4 3 3 3 3 3 3 4 4 4 4 4 5 5 5 5 5 5 6 7 7 8 8 8 8 8 8 8 8 8 8 8 8 8 8 8 8 8 8 8 8 8 8 8 8 8 8
5 5 5 5 5 5 5 5 5 5 5 5 5 5 6 6 5 5 5 5 5 5 5 5 5 5 5 5 5 4 4 4 4 3 4 4 4 4 3 3 2 2 3 3 3 3 3 3 4 4 4 5 5 5 5 5 5 6 7 7 8 8 8 8 8 8 7 7 8 8 8 8 8 8 8 8 8 8 8 8 8 8 8 8 8
5 4 5 4 5 5 5 5 5 5 5 5 5 5 5 5 5 5 5 5 5 5 5 5 5 5 5 5 5 4 4 4 4 3 4 4 4 4 4 3 3 3 3 3 3 3 3 3 4 4 4 5 5 5 5 4 5 6 6 6 7 7 7 7 7 8 7 7 7 7 8 8 8 8 8 8 8 8 8 8 8 8 8 8 8
4 4 4 4 4 4 4 4 4 4 4 4 4 4 5 5 5 5 4 5 5 5 5 5 5 5 4 5 5 5 5 4 4 4 4 4 4 4 4 4 4 4 4 4 4 3 3 3 4 4 4 4 5 5 5 4 4 5 5 5 6 6 7 7 7 7 7 7 7 7 7 8 8 8 8 8 8 8 8 8 8 8 8 8 8
4 3 4 3 3 3 4 4 4 4 4 4 4 4 4 4 4 4 4 4 4 5 5 5 5 5 5 5 5 5 5 5 4 4 4 4 4 4 4 4 4 4 4 5 4 4 4 4 4 4 4 4 5 4 4 4 4 5 5 5 5 5 6 6 7 7 7 7 7 7 7 8 8 8 8 8 8 8 8 8 8 8 8 8 8
3 3 3 3 3 3 3 3 3 4 3 3 3 3 4 4 4 4 4 4 4 4 5 5 5 5 5 5 5 4 5 5 4 4 4 4 4 4 4 4 4 4 5 5 4 4 4 4 4 5 4 4 4 4 4 4 4 4 4 5 5 5 5 6 6 6 6 6 6 7 7 7 8 8 8 8 8 8 8 8 8 8 8 8 8
3 3 3 3 3 3 3 3 3 3 3 3 3 3 3 4 4 4 4 4 4 4 4 5 5 5 5 5 5 5 5 5 4 4 4 4 4 4 4 4 4 4 4 4 4 4 4 4 4 5 5 4 4 4 4 4 4 3 4 5 5 5 5 5 6 6 6 6 6 6 7 7 7 8 8 8 8 8 8 8 8 8 8 8 8
2 2 2 2 3 3 3 3 3 3 3 3 3 3 3 3 3 3 3 4 4 4 4 4 5 5 5 5 5 5 5 5 5 5 5 5 4 4 4 4 4 4 4 4 4 4 4 4 4 5 5 5 4 4 3 3 3 3 4 4 4 4 5 5 5 6 6 6 6 6 6 6 7 7 8 8 8 8 8 8 8 8 8 8 8
2 2 2 2 2 2 3 3 3 3 3 3 3 3 3 3 3 3 3 4 4 4 4 4 4 5 5 5 5 5 5 5 5 5 5 5 5 5 5 5 4 4 4 4 4 4 4 4 4 4 5 4 4 4 4 3 3 3 3 3 4 4 4 5 5 5 5 6 6 6 6 6 6 7 7 7 7 8 8 8 8 8 8 8 8
2 2 2 2 2 2 2 2 2 2 2 2 2 2 2 2 2 2 3 3 3 3 4 4 4 5 5 5 5 5 5 5 5 5 5 5 5 5 5 5 5 5 5 4 4 4 4 4 4 4 4 4 4 4 4 3 3 3 3 3 3 3 4 4 5 5 5 5 5 6 6 6 6 6 7 7 7 7 7 7 8 8 8 8 8
2 2 2 2 2 2 2 2 2 2 2 2 2 2 2 2 2 2 2 3 3 3 3 4 4 4 5 5 5 5 5 5 5 5 5 5 5 5 5 5 5 5 5 4 4 4 4 4 4 4 4 4 4 4 4 3 3 3 4 3 3 3 3 4 4 4 4 4 5 5 5 5 6 6 6 6 6 7 7 7 7 7 8 8 8
2 2 2 2 2 2 2 2 2 2 2 2 2 2 2 2 2 2 2 2 3 3 3 3 4 4 4 5 5 5 5 5 5 5 5 5 5 5 5 5 5 5 5 4 4 4 4 4 4 4 4 4 4 4 4 3 3 3 3 3 3 3 3 3 3 4 4 4 4 4 4 5 5 5 6 6 6 6 6 7 7 7 7 8 8
2 2 2 2 2 2 2 2 2 2 2 2 2 2 2 2 2 2 2 2 2 2 2 3 3 3 4 4 5 5 5 5 5 5 5 5 5 5 5 5 5 5 5 5 5 4 4 4 4 4 4 4 4 4 4 3 3 3 3 3 3 3 3 3 3 3 4 4 4 4 4 4 4 5 5 6 6 6 6 7 7 7 7 8 8
2 2 2 2 2 2 2 2 2 2 2 2 2 2 2 2 2 2 2 2 2 2 2 2 2 3 3 3 4 4 4 5 5 5 5 5 5 5 5 5 5 5 5 5 5 4 4 4 4 4 4 4 4 4 4 4 3 4 3 3 3 3 3 3 3 3 3 4 4 4 4 4 4 4 5 5 5 6 6 6 6 6 7 7 8
2 2 2 2 2 2 2 2 2 2 2 2 2 2 2 2 2 2 2 2 2 2 2 2 2 2 3 3 3 4 4 4 4 4 4 5 5 5 5 5 5 5 5 5 5 4 5 4 4 4 4 4 4 4 4 4 3 3 3 3 3 3 2 3 3 2 3 3 4 4 4 4 4 4 5 5 5 5 5 6 6 6 6 7 7
2 2 2 2 2 2 2 2 2 2 2 2 2 2 2 2 2 2 2 2 2 2 2 2 2 2 2 3 3 3 4 4 4 4 4 4 4 4 4 4 5 5 5 5 5 5 5 5 4 4 4 4 4 4 4 4 4 3 3 3 3 3 3 3 3 3 3 3 3 4 4 4 4 4 4 4 4 5 5 5 6 6 6 6 7
2 2 2 2 2 2 2 2 2 2 2 2 2 2 2 2 2 2 2 2 2 2 2 2 2 2 2 2 2 3 3 3 4 4 4 4 4 4 4 4 4 5 5 5 5 5 5 5 5 4 4 4 4 4 4 4 4 3 3 3 3 3 3 3 3 3 3 3 3 3 4 4 4 4 4 4 4 4 5 5 5 6 6 6 7
2 2 2 2 2 2 2 2 1 1 2 1 1 1 1 1 2 2 2 1 2 2 2 2 2 2 2 2 2 2 3 3 3 3 3 3 4 4 4 4 4 4 4 4 4 5 5 5 5 5 4 4 4 4 4 4 4 3 3 3 3 3 3 3 3 3 3 3 3 3 3 3 4 4 4 4 4 4 4 4 5 5 5 6 6
Height
3155 3154 3154 3153 3153 3153 3153 3154 3154 3155 3155 3155 3155 3155 3155 3154 3154 3154 3155 3155 3156 3157 3158 3158 3158 3158 3159 3160 3160 3160 3159 3159 3159 3159 3159 3159 3159 3160 3161 3162 3162 3163 3164 3165 3166 3166 3166 3167 3167 3168 3168 3168 3169 3170 3172 3173 3174 3175 3175 3175 3176 3178 3179 3180 3181 3182 3182 3182 3183 3184 3184 3185 3186 3186 3187 3188 3189 3190 3190 3191 3191 3191 3190 3190 3190
3154 3154 3154 3153 3153 3153 3153 3153 3154 3155 3155 3155 3155 3156 3155 3154 3154 3154 3154 3155 3156 3156 3158 3159 3159 3159 3159 3160 3161 3161 3161 3160 3160 3160 3159 3160 3160 3160 3161 3162 3163 3164 3164 3165 3166 3166 3166 3167 3168 3168 3169 3170 3170 3171 3172 3174 3175 3176 3176 3176 3177 3179 3181 3181 3183 3184 3184 3184 3185 3185 3186 3186 3187 3187 3188 3189 3190 3191 3191 3192 3192 3192 3192 3191 3191
3152 3152 3153 3153 3153 3152 3153 3153 3153 3155 3155 3155 3156 3156 3155 3154 3154 3153 3154 3155 3156 3156 3157 3159 3159 3159 3159 3159 3161 3162 3162 3162 3161 3161 3160 3160 3161 3161 3162 3163 3164 3164 3165 3165 3166 3166 3167 3167 3168 3169 3169 3170 3171 3172 3173 3175 3176 3176 3177 3178 3178 3180 3181 3182 3183 3184 3185 3186 3186 3187 3188 3188 3188 3189 3189 3190 3191 3192 3192 3193 3193 3193 3193 3193 3193
3151 3151 3152 3152 3152 3152 3153 3153 3153 3154 3155 3155 3155 3156 3156 3155 3154 3153 3154 3155 3156 3156 3157 3159 3159 3159 3159 3159 3160 3161 3162 3162 3162 3162 3161 3161 3162 3162 3162 3163 3164 3165 3165 3166 3166 3166 3167 3168 3168 3169 3170 3171 3172 3173 3174 3175 3176 3177 3178 3179 3179 3180 3182 3183 3184 3184 3186 3186 3186 3188 3189 3190 3190 3190 3190 3191 3192 3192 3193 3193 3194 3194 3194 3194 3194
3151 3152 3152 3151 3151 3152 3153 3153 3153 3154 3154 3155 3155 3156 3156 3156 3155 3154 3154 3155 3156 3157 3158 3159 3159 3159 3159 3159 3160 3161 3161 3162 3162 3162 3162 3162 3162 3163 3163 3164 3164 3165 3165 3166 3166 3167 3167 3168 3169 3170 3171 3172 3173 3174 3175 3176 3177 3177 3179 3180 3180 3181 3182 3184 3184 3185 3187 3187 3187 3188 3189 3191 3191 3191 3192 3192 3193 3193 3194 3194 3195 3195 3195 3195 3196
3151 3152 3152 3152 3151 3152 3153 3153 3153 3153 3154 3155 3155 3156 3156 3156 3156 3155 3154 3155 3156 3158 3159 3159 3159 3160 3159 3159 3160 3160 3161 3162 3162 3162 3162 3163 3163 3163 3163 3164 3164 3164 3165 3166 3166 3167 3168 3168 3169 3170 3171 3173 3174 3175 3176 3177 3177 3178 3179 3180 3181 3182 3183 3184 3185 3186 3188 3188 3189 3189 3190 3191 3192 3193 3193 3194 3194 3194 3195 3195 3195 3196 3196 3196 3197
3151 3151 3151 3152 3152 3152 3152 3153 3153 3153 3153 3155 3155 3156 3156 3156 3156 3156 3155 3155 3156 3158 3159 3159 3160 3160 3159 3159 3159 3160 3161 3161 3162 3162 3163 3163 3163 3163 3163 3163 3164 3164 3165 3166 3166 3167 3168 3169 3170 3171 3172 3173 3174 3175 3176 3177 3178 3178 3179 3181 3182 3183 3183 3185 3185 3187 3188 3189 3190 3190 3191 3191 3193 3194 3194 3195 3195 3195 3196 3196 3196 3197 3197 3197 3198
3150 3151 3151 3151 3152 3152 3152 3153 3153 3153 3153 3154 3155 3155 3156 3156 3157 3157 3156 3156 3157 3158 3159 3159 3160 3160 3160 3159 3159 3160 3161 3161 3162 3162 3163 3163 3163 3163 3164 3163 3164 3164 3165 3165 3166 3167 3168 3169 3170 3171 3173 3174 3175 3176 3176 3177 3178 3179 3179 3181 3183 3184 3184 3185 3186 3187 3189 3189 3190 3191 3191 3192 3193 3194 3195 3196 3196 3196 3197 3197 3197 3197 3198 3198 3199
3149 3150 3150 3151 3152 3152 3152 3153 3153 3153 3153 3154 3155 3155 3156 3156 3157 3157 3157 3157 3157 3157 3158 3159 3159 3160 3160 3160 3159 3159 3160 3161 3162 3162 3162 3163 3163 3163 3163 3163 3164 3164 3164 3165 3166 3167 3168 3169 3171 3172 3173 3174 3175 3176 3177 3178 3178 3179 3180 3181 3183 3185 3185 3185 3186 3188 3189 3190 3191 3192 3193 3193 3194 3195 3196 3196 3197 3197 3197 3198 3198 3198 3199 3199 3200
3148 3149 3150 3151 3152 3153 3153 3153 3154 3154 3154 3154 3155 3155 3156 3157 3157 3157 3158 3158 3157 3157 3158 3159 3159 3160 3160 3160 3160 3159 3159 3161 3162 3162 3162 3162 3162 3162 3163 3163 3163 3164 3164 3165 3166 3167 3168 3170 3171 3172 3173 3175 3176 3177 3177 3178 3179 3179 3180 3181 3183 3184 3185 3186 3186 3187 3189 3191 3191 3192 3194 3194 3195 3196 3197 3197 3197 3198 3198 3198 3199 3199 3199 3200 3201
3148 3149 3150 3150 3151 3152 3153 3153 3153 3154 3154 3155 3155 3156 3157 3157 3158 3158 3158 3158 3158 3158 3158 3159 3159 3160 3160 3160 3160 3159 3159 3160 3161 3161 3162 3162 3162 3162 3162 3162 3163 3163 3164 3165 3165 3167 3168 3170 3171 3172 3174 3175 3176 3177 3178 3179 3180 3179 3180 3181 3183 3184 3185 3186 3187 3188 3190 3191 3191 3192 3193 3195 3196 3196 3197 3198 3198 3198 3199 3199 3200 3200 3201 3201 3202
3148 3149 3149 3150 3150 3151 3152 3153 3153 3154 3154 3155 3156 3156 3157 3157 3157 3158 3158 3158 3158 3158 3158 3159 3159 3160 3160 3160 3160 3159 3158 3160 3160 3161 3161 3161 3161 3162 3162 3162 3162 3163 3164 3164 3165 3167 3168 3169 3171 3172 3174 3175 3176 3178 3179 3179 3180 3180 3180 3181 3183 3185 3186 3186 3188 3189 3190 3190 3191 3192 3193 3195 3196 3197 3198 3198 3199 3199 3199 3200 3200 3201 3202 3202 3203
3147 3148 3149 3149 3150 3150 3151 3152 3153 3153 3154 3155 3156 3156 3156 3157 3157 3158 3158 3158 3158 3158 3158 3159 3159 3160 3160 3159 3159 3159 3158 3159 3160 3160 3161 3161 3161 3161 3161 3161 3162 3162 3163 3164 3165 3167 3168 3169 3171 3172 3173 3175 3176 3178 3179 3180 3180 3180 3180 3181 3183 3185 3186 3186 3187 3189 3189 3190 3191 3192 3193 3194 3196 3197 3198 3199 3199 3200 3200 3201 3201 3202 3203 3203 3204
3147 3148 3148 3148 3149 3150 3151 3151 3152 3153 3154 3155 3156 3156 3156 3156 3157 3157 3158 3157 3157 3157 3157 3158 3159 3159 3159 3159 3159 3159 3158 3159 3160 3159 3160 3160 3160 3161 3161 3161 3161 3162 3162 3164 3165 3167 3168 3169 3170 3171 3173 3174 3176 3177 3179 3180 3181 3181 3181 3181 3183 3185 3186 3187 3188 3189 3189 3191 3192 3193 3193 3194 3196 3197 3198 3199 3200 3200 3201 3201 3202 3203 3203 3204 3204
3147 3147 3148 3148 3149 3149 3150 3151 3152 3153 3154 3155 3155 3156 3156 3156 3156 3156 3156 3156 3156 3156 3156 3157 3158 3158 3158 3158 3158 3158 3158 3159 3159 3159 3159 3159 3159 3160 3160 3161 3162 3162 3162 3163 3164 3166 3168 3169 3170 3171 3172 3174 3176 3177 3179 3180 3181 3181 3181 3182 3183 3185 3187 3188 3189 3190 3190 3192 3193 3193 3194 3195 3196 3198 3199 3200 3200 3201 3201 3202 3203 3203 3204 3205 3205
3147 3147 3148 3148 3148 3149 3149 3150 3151 3152 3154 3154 3155 3155 3156 3155 3155 3155 3155 3155 3155 3155 3155 3155 3157 3157 3157 3157 3158 3157 3158 3158 3158 3158 3158 3159 3159 3158 3159 3161 3161 3162 3162 3162 3164 3165 3167 3168 3169 3170 3172 3174 3175 3177 3179 3180 3181 3181 3182 3183 3183 3184 3186 3189 3190 3191 3191 3193 3194 3194 3195 3196 3197 3198 3199 3200 3201 3201 3202 3203 3203 3204 3204 3205 3206
3146 3147 3147 3148 3148 3148 3149 3150 3151 3152 3153 3154 3155 3155 3155 3154 3154 3154 3154 3154 3154 3154 3154 3155 3156 3156 3156 3156 3157 3157 3157 3157 3157 3158 3158 3158 3158 3157 3159 3161 3161 3161 3161 3162 3163 3164 3166 3167 3168 3170 3171 3173 3175 3176 3178 3180 3181 3182 3182 3183 3183 3184 3186 3188 3190 3191 3192 3193 3195 3195 3196 3197 3198 3199 3200 3200 3201 3202 3202 3203 3204 3204 3205 3205 3206
3146 3146 3146 3147 3148 3148 3148 3149 3151 3152 3152 3153 3153 3153 3153 3153 3152 3152 3152 3153 3153 3153 3153 3154 3154 3154 3155 3155 3155 3155 3156 3156 3156 3156 3157 3158 3157 3157 3158 3160 3161 3161 3161 3161 3163 3164 3165 3166 3168 3169 3171 3172 3174 3176 3178 3179 3181 3182 3183 3183 3183 3184 3186 3187 3189 3191 3192 3193 3195 3195 3197 3198 3199 3199 3200 3201 3202 3202 3203 3203 3204 3204 3205 3205 3206
3146 3146 3146 3146 3147 3148 3148 3149 3150 3151 3151 3152 3152 3152 3151 3151 3151 3151 3151 3151 3152 3152 3152 3152 3153 3153 3154 3154 3154 3154 3155 3155 3155 3155 3156 3157 3156 3157 3158 3159 3161 3161 3161 3162 3162 3163 3164 3165 3167 3168 3170 3172 3173 3175 3177 3179 3180 3181 3183 3183 3183 3184 3186 3187 3189 3190 3191 3193 3194 3195 3197 3198 3199 3200 3200 3201 3202 3203 3203 3204 3204 3204 3205 3205 3206
3144 3145 3146 3146 3146 3147 3147 3148 3149 3150 3150 3150 3150 3150 3150 3149 3149 3150 3150 3150 3150 3150 3151 3151 3151 3152 3153 3153 3154 3154 3154 3155 3154 3155 3155 3156 3156 3157 3157 3159 3160 3161 3161 3162 3162 3163 3164 3165 3166 3167 3169 3171 3172 3174 3176 3178 3180 3181 3182 3183 3183 3184 3186 3187 3188 3189 3190 3193 3194 3195 3197 3198 3199 3200 3201 3201 3202 3203 3203 3204 3204 3205 3205 3205 3206
3144 3144 3144 3145 3145 3145 3146 3147 3148 3149 3149 3149 3149 3149 3149 3148 3148 3148 3149 3149 3149 3149 3150 3150 3151 3152 3152 3153 3154 3154 3154 3155 3155 3156 3155 3156 3156 3157 3158 3158 3160 3161 3161 3162 3162 3163 3164 3164 3165 3167 3169 3171 3172 3174 3176 3178 3179 3181 3181 3182 3183 3184 3185 3187 3188 3189 3191 3193 3193 3195 3196 3198 3199 3200 3201 3201 3202 3203 3203 3204 3204 3205 3205 3205 3206
3143 3143 3143 3143 3144 3144 3145 3145 3146 3147 3147 3148 3148 3148 3148 3147 3147 3147 3148 3148 3149 3149 3149 3149 3150 3151 3152 3153 3153 3154 3155 3155 3156 3156 3156 3156 3157 3158 3158 3159 3160 3161 3161 3162 3163 3163 3164 3165 3165 3167 3168 3170 3172 3173 3175 3177 3179 3180 3181 3182 3183 3184 3185 3186 3187 3189 3191 3193 3193 3194 3196 3197 3198 3199 3200 3201 3202 3203 3203 3204 3204 3205 3205 3205 3206
3142 3142 3142 3143 3143 3143 3143 3144 3145 3145 3146 3147 3147 3146 3146 3146 3146 3147 3147 3148 3148 3149 3149 3149 3150 3151 3152 3153 3153 3154 3156 3156 3156 3156 3156 3157 3157 3159 3160 3160 3161 3161 3161 3162 3163 3164 3164 3165 3166 3166 3168 3170 3172 3174 3175 3177 3179 3180 3181 3182 3183 3184 3185 3185 3187 3188 3192 3193 3193 3194 3195 3197 3198 3199 3200 3201 3202 3202 3203 3204 3204 3204 3205 3205 3205
3140 3141 3141 3141 3142 3142 3142 3142 3144 3144 3144 3145 3145 3145 3145 3145 3145 3146 3146 3147 3148 3148 3149 3149 3150 3151 3152 3153 3153 3154 3155 3156 3156 3156 3156 3157 3158 3160 3160 3161 3161 3161 3162 3162 3163 3164 3164 3165 3166 3167 3168 3170 3172 3173 3175 3176 3178 3179 3180 3181 3182 3184 3185 3185 3186 3187 3191 3193 3192 3194 3195 3196 3198 3199 3200 3200 3201 3202 3203 3203 3204 3204 3204 3205 3205
3139 3140 3140 3140 3140 3140 3141 3141 3142 3143 3143 3144 3144 3144 3144 3144 3144 3145 3146 3146 3147 3147 3148 3149 3150 3151 3151 3152 3152 3153 3155 3156 3156 3157 3157 3158 3159 3160 3161 3161 3162 3162 3162 3162 3163 3164 3165 3165 3166 3167 3168 3169 3171 3172 3174 3175 3177 3178 3179 3181 3182 3183 3184 3185 3186 3186 3190 3192 3192 3193 3194 3195 3197 3198 3199 3200 3200 3201 3202 3202 3203 3204 3204 3205 3205
3138 3139 3139 3139 3139 3139 3140 3140 3141 3141 3142 3143 3143 3142 3142 3143 3144 3144 3145 3145 3146 3146 3148 3148 3149 3150 3150 3153 3153 3153 3154 3155 3156 3157 3157 3158 3159 3160 3162 3162 3162 3163 3163 3163 3163 3164 3165 3166 3167 3167 3168 3168 3170 3172 3173 3175 3176 3177 3178 3180 3181 3182 3184 3184 3184 3186 3189 3190 3191 3192 3193 3195 3196 3197 3198 3199 3200 3200 3201 3202 3202 3203 3204 3204 3205
3137 3139 3139 3139 3138 3138 3139 3139 3140 3140 3140 3141 3141 3141 3141 3142 3143 3144 3144 3145 3145 3146 3147 3147 3148 3150 3150 3153 3154 3153 3153 3155 3155 3156 3157 3158 3159 3160 3161 3162 3163 3163 3163 3163 3163 3164 3165 3166 3167 3168 3168 3168 3169 3171 3172 3174 3175 3176 3177 3178 3180 3181 3183 3184 3184 3185 3188 3189 3190 3192 3193 3194 3196 3196 3198 3199 3199 3200 3201 3201 3202 3203 3203 3204 3204
3136 3138 3138 3138 3138 3137 3138 3138 3139 3139 3139 3139 3139 3140 3140 3140 3141 3142 3143 3144 3145 3145 3146 3147 3149 3149 3149 3150 3152 3153 3153 3154 3154 3155 3157 3158 3158 3159 3160 3161 3162 3163 3163 3163 3163 3164 3164 3165 3166 3167 3168 3168 3169 3170 3172 3173 3175 3175 3176 3177 3179 3180 3182 3183 3184 3185 3187 3188 3189 3191 3192 3193 3195 3196 3197 3198 3199 3200 3200 3201 3202 3202 3203 3203 3204
3136 3136 3137 3137 3137 3137 3137 3138 3138 3137 3138 3137 3137 3138 3138 3139 3140 3141 3142 3144 3145 3145 3145 3146 3148 3148 3148 3149 3151 3152 3152 3153 3153 3154 3156 3158 3158 3159 3159 3160 3161 3162 3162 3162 3163 3163 3164 3164 3166 3167 3168 3169 3169 3170 3171 3173 3174 3175 3175 3176 3177 3179 3181 3182 3183 3185 3187 3188 3189 3190 3191 3192 3194 3195 3196 3197 3198 3199 3200 3201 3201 3202 3203 3203 3203
3135 3135 3136 3136 3136 3136 3136 3137 3137 3137 3136 3136 3135 3136 3137 3137 3138 3140 3140 3142 3144 3145 3145 3145 3146 3147 3148 3148 3150 3151 3150 3151 3152 3153 3155 3156 3157 3158 3159 3160 3160 3161 3162 3162 3163 3163 3163 3164 3165 3167 3168 3169 3170 3170 3171 3172 3173 3174 3175 3176 3176 3178 3179 3181 3182 3184 3185 3187 3188 3189 3190 3192 3193 3194 3195 3196 3197 3198 3199 3200 3201 3202 3202 3203 3203
3134 3134 3135 3135 3134 3135 3135 3136 3136 3136 3135 3135 3134 3135 3135 3135 3136 3137 3138 3140 3141 3143 3144 3144 3145 3146 3148 3148 3148 3150 3150 3150 3151 3152 3154 3154 3155 3157 3158 3160 3160 3161 3162 3162 3163 3163 3163 3164 3165 3166 3167 3169 3169 3170 3171 3171 3171 3173 3174 3175 3175 3177 3178 3179 3181 3182 3183 3186 3188 3189 3189 3191 3192 3193 3194 3195 3197 3198 3199 3199 3200 3201 3202 3202 3202
3132 3133 3133 3133 3133 3134 3134 3135 3135 3134 3134 3134 3134 3133 3133 3133 3134 3134 3136 3138 3139 3140 3142 3142 3143 3145 3147 3147 3147 3148 3149 3149 3149 3150 3152 3153 3154 3155 3157 3159 3160 3161 3162 3161 3162 3163 3163 3164 3166 3166 3167 3168 3168 3169 3170 3170 3170 3171 3172 3173 3174 3175 3177 3178 3179 3181 3182 3183 3186 3187 3188 3190 3191 3192 3193 3194 3196 3197 3198 3199 3199 3200 3201 3201 3202
3131 3132 3132 3132 3132 3133 3133 3133 3134 3134 3134 3133 3133 3132 3132 3132 3132 3132 3134 3136 3137 3139 3140 3141 3142 3144 3146 3146 3146 3147 3147 3148 3147 3147 3150 3151 3151 3152 3155 3157 3158 3161 3162 3160 3161 3163 3163 3164 3165 3166 3167 3168 3169 3168 3169 3170 3170 3170 3170 3171 3172 3174 3175 3176 3178 3179 3180 3181 3184 3186 3187 3188 3189 3191 3192 3193 3195 3196 3196 3197 3198 3199 3200 3200 3201
3130 3130 3130 3131 3131 3132 3132 3132 3132 3132 3132 3132 3132 3131 3130 3130 3130 3131 3132 3133 3135 3136 3138 3140 3141 3142 3144 3145 3144 3145 3146 3147 3146 3146 3148 3149 3149 3152 3153 3154 3156 3158 3160 3160 3160 3162 3163 3164 3165 3166 3167 3168 3169 3168 3168 3169 3169 3169 3169 3170 3170 3171 3173 3174 3176 3177 3179 3180 3181 3183 3185 3186 3187 3189 3190 3192 3193 3194 3195 3196 3197 3197 3198 3199 3199
3129 3129 3129 3130 3130 3130 3130 3130 3131 3131 3131 3130 3130 3130 3129 3129 3129 3130 3130 3131 3132 3134 3136 3138 3139 3140 3142 3143 3143 3143 3145 3146 3146 3145 3146 3147 3148 3150 3153 3155 3156 3157 3158 3160 3161 3162 3162 3164 3165 3165 3166 3167 3167 3167 3167 3168 3168 3168 3168 3169 3169 3170 3171 3172 3174 3175 3177 3178 3179 3181 3183 3185 3186 3187 3188 3190 3191 3192 3193 3194 3195 3196 3197 3197 3198
3127 3128 3127 3128 3128 3129 3129 3129 3129 3129 3129 3129 3129 3128 3128 3127 3128 3129 3129 3130 3130 3131 3133 3135 3136 3138 3140 3141 3142 3142 3143 3144 3145 3145 3145 3146 3148 3150 3153 3155 3156 3157 3157 3159 3162 3163 3162 3163 3164 3164 3165 3165 3166 3167 3167 3167 3168 3167 3167 3168 3168 3168 3170 3171 3172 3173 3174 3176 3177 3178 3180 3182 3184 3185 3186 3187 3189 3190 3191 3192 3193 3194 3195 3196 3196
3125 3126 3126 3126 3126 3127 3127 3127 3127 3127 3127 3127 3127 3126 3126 3126 3126 3127 3127 3128 3129 3129 3131 3133 3133 3135 3137 3138 3140 3141 3141 3142 3143 3144 3144 3145 3148 3150 3151 3153 3154 3156 3157 3157 3160 3162 3162 3162 3163 3163 3163 3164 3165 3165 3165 3165 3166 3166 3167 3167 3167 3167 3168 3169 3170 3172 3173 3174 3175 3176 3177 3178 3180 3182 3184 3185 3187 3188 3189 3190 3191 3192 3193 3194 3194
3122 3124 3124 3125 3125 3125 3125 3125 3125 3125 3125 3125 3125 3125 3124 3124 3124 3125 3126 3126 3127 3128 3129 3130 3131 3132 3133 3135 3138 3140 3140 3140 3141 3142 3143 3145 3146 3148 3150 3151 3153 3155 3157 3156 3157 3159 3161 3161 3161 3162 3162 3162 3164 3164 3164 3164 3165 3165 3165 3166 3166 3166 3166 3167 3168 3170 3170 3171 3173 3174 3175 3176 3177 3179 3180 3182 3184 3186 3187 3188 3189 3190 3191 3192 3192
3120 3121 3122 3123 3123 3123 3123 3123 3123 3123 3123 3123 3123 3123 3123 3123 3123 3124 3124 3124 3125 3127 3127 3128 3128 3129 3130 3133 3135 3136 3137 3139 3140 3140 3142 3143 3145 3147 3148 3150 3151 3152 3154 3155 3155 3156 3158 3159 3160 3160 3161 3162 3162 3163 3163 3163 3164 3164 3164 3164 3165 3165 3165 3165 3166 3167 3168 3169 3170 3171 3173 3174 3175 3176 3178 3179 3181 3183 3184 3186 3186 3188 3188 3189 3190
3118 3119 3120 3120 3121 3122 3121 3121 3122 3122 3122 3121 3121 3121 3121 3122 3122 3123 3123 3123 3124 3125 3126 3126 3126 3127 3128 3130 3131 3132 3134 3136 3137 3138 3140 3141 3143 3144 3146 3148 3150 3150 3150 3152 3152 3153 3154 3156 3157 3158 3159 3160 3161 3162 3162 3162 3163 3163 3162 3162 3163 3164 3164 3164 3164 3164 3166 3167 3168 3169 3170 3171 3171 3173 3175 3176 3178 3179 3181 3183 3184 3185 3186 3187 3188
3117 3118 3119 3119 3119 3120 3120 3120 3120 3121 3120 3120 3120 3120 3120 3121 3121 3122 3121 3122 3123 3124 3125 3125 3125 3125 3126 3126 3127 3129 3131 3133 3133 3135 3137 3138 3140 3141 3142 3144 3146 3147 3148 3148 3150 3151 3152 3153 3154 3155 3157 3158 3158 3159 3160 3161 3162 3161 3160 3161 3161 3161 3162 3162 3162 3163 3163 3165 3166 3167 3167 3168 3168 3169 3171 3173 3175 3176 3178 3180 3182 3182 3183 3184 3186
3115 3116 3117 3118 3118 3118 3118 3119 3119 3119 3119 3119 3120 3120 3120 3119 3120 3120 3120 3120 3122 3122 3123 3124 3123 3124 3124 3124 3124 3126 3128 3129 3130 3132 3133 3134 3136 3137 3138 3140 3142 3143 3144 3145 3146 3148 3149 3150 3151 3152 3154 3155 3156 3157 3158 3159 3160 3160 3159 3159 3158 3158 3159 3159 3160 3162 3162 3163 3164 3165 3166 3165 3166 3166 3167 3169 3170 3172 3173 3176 3178 3179 3180 3181 3183
3114 3115 3116 3117 3117 3117 3117 3118 3118 3118 3118 3118 3119 3119 3119 3119 3119 3119 3119 3119 3120 3121 3121 3122 3122 3122 3123 3123 3123 3124 3125 3125 3126 3128 3130 3131 3132 3133 3135 3136 3138 3139 3140 3141 3143 3144 3146 3147 3149 3151 3151 3152 3153 3153 3155 3156 3157 3159 3158 3157 3156 3156 3157 3158 3158 3160 3161 3161 3161 3163 3164 3164 3164 3164 3165 3166 3167 3168 3170 3171 3173 3175 3176 3178 3180
3112 3113 3114 3115 3116 3116 3116 3116 3117 3117 3117 3117 3118 3119 3118 3118 3118 3118 3118 3118 3118 3119 3119 3120 3120 3121 3121 3122 3122 3122 3123 3123 3124 3125 3126 3128 3129 3130 3132 3133 3134 3135 3136 3137 3139 3140 3142 3143 3145 3148 3148 3148 3150 3151 3152 3153 3154 3156 3155 3155 3155 3154 3155 3156 3157 3158 3159 3159 3159 3160 3161 3161 3162 3162 3163 3164 3164 3165 3167 3168 3169 3171 3172 3174 3176
3111 3111 3113 3114 3114 3115 3115 3115 3116 3116 3116 3116 3117 3118 3117 3118 3117 3117 3117 3117 3117 3117 3117 3118 3118 3119 3119 3120 3120 3121 3121 3121 3122 3123 3123 3124 3126 3127 3129 3130 3131 3132 3132 3133 3135 3136 3138 3139 3141 3143 3144 3145 3147 3148 3149 3150 3151 3153 3153 3153 3153 3153 3154 3155 3155 3156 3156 3157 3157 3157 3158 3158 3159 3160 3161 3162 3162 3162 3164 3165 3166 3167 3168 3169 3171
3110 3110 3111 3113 3113 3113 3114 3114 3114 3115 3115 3116 3116 3117 3117 3117 3117 3116 3116 3116 3116 3116 3116 3116 3117 3117 3117 3118 3118 3119 3119 3119 3120 3120 3121 3122 3123 3124 3126 3127 3128 3128 3129 3130 3131 3133 3134 3135 3137 3138 3140 3142 3144 3144 3144 3146 3148 3149 3150 3151 3151 3152 3154 3154 3153 3153 3154 3155 3155 3155 3155 3156 3156 3157 3158 3158 3159 3160 3160 3162 3164 3164 3165 3166 3167
3109 3109 3110 3111 3111 3111 3112 3112 3113 3113 3114 3115 3115 3115 3116 3116 3116 3115 3115 3115 3115 3115 3115 3115 3115 3115 3115 3116 3116 3117 3117 3118 3118 3118 3119 3119 3120 3121 3122 3124 3124 3125 3126 3126 3128 3129 3130 3131 3132 3134 3135 3138 3139 3140 3141 3143 3143 3144 3146 3148 3149 3150 3151 3151 3151 3151 3152 3153 3154 3153 3154 3154 3154 3154 3155 3155 3156 3156 3157 3159 3161 3162 3162 3163 3164
3107 3108 3109 3110 3110 3110 3110 3111 3112 3112 3113 3114 3114 3114 3114 3115 3114 3114 3114 3114 3114 3114 3114 3114 3113 3113 3113 3113 3114 3115 3115 3115 3116 3116 3117 3117 3117 3118 3119 3120 3121 3121 3122 3123 3124 3125 3126 3127 3128 3129 3131 3133 3134 3136 3137 3139 3139 3141 3142 3144 3146 3147 3148 3148 3149 3149 3150 3151 3152 3152 3152 3152 3151 3152 3152 3153 3152 3153 3154 3155 3156 3158 3159 3160 3161
3106 3107 3107 3108 3108 3108 3108 3109 3110 3111 3112 3113 3113 3113 3113 3113 3113 3113 3112 3112 3112 3112 3112 3112 3112 3111 3111 3111 3111 3112 3112 3113 3113 3113 3114 3114 3115 3115 3116 3117 3117 3118 3119 3119 3120 3120 3121 3123 3124 3125 3127 3128 3129 3131 3132 3134 3135 3137 3138 3139 3141 3143 3144 3145 3146 3146 3148 3149 3149 3150 3151 3150 3150 3150 3150 3150 3150 3150 3150 3151 3152 3154 3155 3156 3157
3104 3105 3106 3106 3107 3107 3107 3108 3108 3109 3111 3111 3111 3111 3111 3111 3111 3111 3111 3110 3110 3110 3109 3110 3110 3110 3110 3109 3109 3109 3109 3110 3110 3111 3111 3111 3111 3112 3112 3113 3114 3115 3115 3115 3115 3116 3117 3118 3119 3120 3121 3123 3125 3126 3127 3129 3130 3132 3133 3135 3137 3139 3140 3141 3143 3144 3145 3146 3147 3148 3149 3149 3148 3148 3148 3148 3148 3147 3147 3148 3149 3151 3152 3152 3153
3103 3103 3104 3104 3105 3105 3106 3107 3107 3107 3109 3110 3110 3110 3110 3110 3110 3110 3110 3109 3109 3109 3108 3108 3109 3108 3108 3108 3107 3107 3107 3107 3108 3108 3108 3108 3108 3108 3109 3109 3109 3110 3111 3112 3112 3113 3113 3114 3116 3116 3117 3118 3119 3121 3123 3124 3125 3127 3128 3129 3132 3134 3135 3136 3139 3141 3142 3142 3143 3145 3147 3148 3148 3146 3145 3145 3145 3144 3144 3145 3145 3147 3149 3149 3149
Wind_Speed
7 8 8 8 8 8 7 6 5 4 2 1 2 4 4 6 7 8 9 9 8 6 7 10 10 9 9 7 5 7 7 8 9 10 10 10 10 12 14 15 16 16 15 14 14 15 15 15 15 19 26 29 30 30 28 26 26 25 25 25 26 27 28 29 29 29 31 32 32 31 31 30 30 29 28 27 27 26 26 25 25 25 24 23 23
6 8 9 8 8 8 8 6 6 5 3 1 2 3 3 5 6 6 5 7 7 7 7 8 9 9 8 8 5 4 4 6 8 8 9 9 9 11 13 14 15 15 15 14 14 14 15 15 15 19 27 30 30 30 28 26 26 25 24 25 27 27 28 28 28 28 29 30 30 30 29 28 29 28 27 27 26 25 25 24 23 23 22 21 21
6 8 9 9 8 8 9 7 6 5 4 2 1 2 2 3 5 5 3 4 5 6 8 7 7 8 7 6 5 3 2 4 6 7 8 8 9 11 12 12 13 14 14 14 13 14 15 15 15 21 28 30 30 29 28 27 26 25 24 25 27 27 27 28 28 28 28 29 29 28 27 27 27 27 26 25 25 24 23 22 22 21 20 19 19
7 8 9 8 7 8 9 8 6 5 5 3 0 1 2 2 4 5 4 4 3 5 7 6 6 7 7 5 4 3 2 1 3 5 6 8 9 11 11 11 10 11 13 14 14 14 16 16 16 23 29 30 30 29 27 27 27 26 25 26 27 27 27 27 28 27 27 29 29 28 27 25 25 25 25 24 23 23 22 21 20 19 18 18 17
7 7 7 8 7 8 9 7 5 5 6 4 2 0 1 2 4 4 5 5 3 5 5 4 5 7 6 4 2 2 1 1 1 3 4 6 9 10 11 10 9 10 12 15 15 14 16 16 18 26 30 30 30 28 28 28 27 26 25 26 27 27 27 27 27 26 26 28 29 29 27 25 24 24 23 22 22 21 20 19 18 17 16 16 15
6 6 6 8 8 8 8 7 6 5 6 4 3 1 2 3 3 4 6 7 5 3 3 2 3 4 5 4 1 1 0 1 2 2 2 5 8 11 11 10 10 10 12 15 16 15 15 16 21 28 30 30 29 28 28 28 27 27 26 26 27 27 27 27 27 26 26 27 28 27 27 25 23 23 22 21 20 20 19 18 17 15 15 14 13
6 6 5 7 6 7 7 7 6 6 6 3 2 2 1 2 2 3 4 6 6 3 2 1 1 1 3 4 2 0 0 1 3 2 3 5 8 10 12 11 11 11 12 16 17 16 15 17 25 30 30 30 29 28 28 28 28 27 27 27 27 27 27 26 26 25 25 27 27 27 26 25 23 22 21 20 19 19 18 17 15 14 13 12 12
5 5 5 6 5 5 6 7 8 7 6 5 4 4 4 3 2 4 5 4 4 5 5 3 2 2 3 2 2 2 0 2 3 3 3 4 7 9 12 12 11 12 13 16 18 17 15 19 27 31 30 30 29 28 29 29 28 27 28 27 26 27 27 26 26 25 25 26 26 26 25 24 23 21 21 20 19 17 16 15 14 13 12 11 10
4 5 5 5 5 5 6 8 10 9 7 8 8 8 7 5 3 4 5 5 5 5 5 3 3 3 4 1 1 2 2 2 3 3 4 4 5 7 10 11 11 13 14 17 20 18 16 21 29 31 31 30 29 28 28 29 28 28 28 28 27 26 26 26 26 24 24 26 26 24 23 23 22 21 20 19 18 17 15 14 13 12 11 10 9
3 4 6 6 6 6 7 9 10 10 9 10 10 11 9 7 5 5 5 5 5 6 6 4 3 5 6 5 2 1 2 3 4 3 5 4 4 5 7 9 11 13 15 18 21 19 17 22 29 31 31 30 29 28 28 28 28 29 29 29 28 27 27 26 26 25 24 25 25 24 22 22 21 20 19 18 18 16 14 13 12 11 10 10 8
4 5 7 6 7 8 9 10 10 11 11 11 11 12 9 8 6 5 3 4 5 6 6 5 4 6 9 9 6 2 2 4 5 4 5 4 4 5 6 7 10 14 16 19 21 19 18 23 29 31 31 31 29 28 28 28 28 29 29 29 29 28 27 26 26 25 23 25 26 25 23 22 20 20 18 18 17 16 14 13 11 10 9 9 8
7 7 8 7 8 9 9 10 10 11 11 11 12 11 10 8 7 5 2 2 4 6 7 5 6 6 8 10 8 5 3 4 5 5 6 5 4 5 5 6 9 13 17 19 20 19 19 22 28 31 31 31 30 29 28 28 27 28 29 29 29 28 28 27 26 24 23 24 25 24 23 22 21 20 18 17 17 16 14 12 10 9 7 7 7
8 8 9 8 9 10 9 10 10 10 11 11 12 11 10 10 10 8 5 4 4 6 7 6 7 7 7 8 8 6 4 4 5 5 6 6 5 4 5 6 9 13 16 18 19 19 19 22 27 31 32 31 30 29 28 28 27 28 29 30 29 28 28 27 26 25 24 24 23 22 22 21 20 19 18 17 16 15 14 12 10 8 7 6 5
7 8 10 9 10 11 11 11 10 11 11 12 12 12 12 11 11 11 9 8 7 7 8 8 9 9 7 6 7 7 5 5 6 5 6 6 5 5 6 7 9 13 16 17 18 19 19 21 26 30 32 32 31 30 28 27 27 27 29 30 30 28 27 27 26 26 24 23 21 20 20 20 20 19 18 16 16 15 13 12 10 8 6 5 4
6 7 8 8 9 10 12 11 11 11 11 12 12 13 13 12 12 12 12 11 11 10 9 10 10 10 8 6 8 9 8 6 5 4 5 6 5 6 7 8 9 12 16 17 18 19 19 21 25 30 33 32 31 30 29 28 27 27 28 29 29 28 27 25 25 24 23 21 19 18 18 19 18 18 17 16 15 14 13 12 10 8 7 5 4
9 8 7 7 7 9 11 11 11 12 12 13 13 14 14 14 14 14 14 13 13 12 11 11 11 11 8 7 8 11 11 7 4 3 4 5 6 7 8 9 10 12 15 17 18 19 19 21 23 29 33 33 32 30 29 28 28 27 27 28 29 29 27 25 24 23 22 20 18 17 17 17 17 17 16 15 14 14 13 11 10 9 7 5 4
10 10 8 6 5 6 10 11 12 12 13 14 14 16 16 16 16 16 15 14 13 12 12 11 11 11 8 7 8 10 11 10 5 2 2 5 6 8 8 10 12 13 15 17 18 19 19 20 22 28 33 34 32 31 30 29 28 27 27 28 29 29 28 26 24 23 22 21 18 16 15 15 15 15 15 13 13 13 12 11 10 8 7 6 4
7 9 9 8 6 5 6 10 12 12 13 15 16 16 17 17 16 16 14 14 13 13 13 12 12 10 8 8 9 8 8 10 7 2 2 5 7 8 8 10 12 13 15 17 18 19 18 19 20 26 34 35 33 32 30 29 28 27 26 26 28 28 28 26 25 23 23 22 19 17 15 15 15 15 14 13 12 12 11 10 9 8 7 5 4
6 7 8 10 9 7 6 8 11 12 14 15 16 16 16 17 16 15 14 14 14 14 14 13 13 10 9 9 9 7 5 7 6 4 3 6 7 8 8 9 12 12 13 16 18 18 18 19 19 26 34 35 33 32 31 29 28 27 26 26 26 27 27 27 26 25 25 22 20 19 17 15 15 14 14 12 11 11 10 9 9 8 6 5 4
8 7 7 9 10 11 10 9 9 11 14 15 15 15 15 16 16 15 14 15 15 15 15 14 13 11 11 10 9 6 4 4 4 6 6 7 8 8 9 9 10 11 11 14 16 18 18 18 19 26 34 35 33 32 31 30 28 27 27 26 26 26 27 27 27 27 26 23 22 20 18 17 15 15 14 13 11 10 10 9 8 7 6 5 4
9 9 9 8 10 12 13 14 12 10 11 13 14 14 14 15 15 15 15 16 16 16 16 15 13 12 11 10 7 5 4 2 3 6 6 8 8 8 9 8 8 9 9 11 14 16 17 18 19 25 33 35 33 32 31 30 28 27 27 26 26 26 27 27 27 27 25 24 24 22 20 19 17 16 15 13 12 10 9 9 8 7 7 5 4
10 11 11 10 11 12 13 15 15 13 10 10 12 13 14 15 15 15 15 16 17 17 17 16 14 11 10 8 6 5 5 3 3 6 6 9 9 8 8 7 6 7 8 10 12 15 16 17 19 25 33 34 33 32 31 30 28 27 26 26 25 25 27 27 27 27 24 24 25 23 22 21 19 17 16 14 12 11 9 9 8 7 7 6 4
13 13 13 12 12 13 14 14 14 16 14 11 11 12 14 15 15 15 15 16 17 18 17 16 14 12 10 6 5 6 6 4 5 8 9 11 10 7 6 6 5 6 7 9 11 13 15 17 18 24 32 33 33 32 31 30 28 28 27 26 25 25 26 27 27 26 24 24 25 24 23 22 20 19 17 15 13 12 11 10 9 8 7 6 4
15 15 15 14 13 13 15 14 13 15 16 14 11 11 13 14 15 15 15 16 17 18 17 16 13 12 11 6 5 6 6 6 7 9 10 12 10 6 5 5 6 7 7 8 10 12 14 16 18 23 30 33 33 32 31 30 29 28 27 26 25 25 25 25 26 26 24 24 25 24 24 23 22 20 18 17 15 14 12 11 10 9 8 7 5
17 16 16 16 15 15 15 15 14 14 15 15 14 13 13 14 15 14 16 16 17 18 16 14 12 11 11 9 7 6 6 8 8 9 10 12 11 8 5 5 7 8 8 8 9 10 12 14 16 20 28 32 34 34 32 31 30 29 28 27 26 25 25 25 26 26 24 24 26 25 25 24 22 21 20 19 17 16 14 13 11 10 9 7 6
19 18 16 15 16 17 16 15 15 14 14 14 16 17 16 14 15 15 17 16 16 17 15 13 13 11 12 10 6 6 8 8 8 9 9 11 11 9 7 6 6 8 10 10 9 9 11 12 15 18 25 32 34 34 34 32 31 30 29 28 27 26 25 25 26 24 22 25 26 26 25 24 23 22 21 20 18 17 15 14 12 10 9 8 7
20 18 16 16 17 17 16 16 16 14 15 15 16 18 18 17 15 15 17 17 17 16 16 16 14 12 13 11 8 9 9 8 10 9 9 11 11 12 10 8 6 6 8 11 10 9 10 11 12 15 21 30 34 35 35 33 32 32 30 29 28 27 25 25 26 24 21 23 25 26 25 24 23 23 22 20 18 17 16 14 12 11 10 9 8
19 18 17 17 17 17 15 15 16 16 17 16 15 17 20 20 16 13 15 17 17 17 17 17 16 14 14 14 12 11 11 10 11 11 11 12 12 13 10 9 9 7 6 8 9 9 9 11 11 13 17 26 33 36 35 34 33 33 31 30 29 27 26 26 26 23 21 21 24 25 24 24 23 23 22 21 19 17 15 13 12 11 10 9 9
19 18 18 18 17 16 15 14 16 17 18 18 18 18 18 20 20 19 18 19 19 19 18 16 16 17 16 16 13 13 14 13 12 12 12 11 12 12 11 12 12 9 6 6 8 9 9 10 11 11 14 20 28 33 35 35 34 34 32 30 29 28 27 27 26 24 21 21 24 24 23 23 23 22 21 21 19 17 15 13 12 11 10 10 10
18 17 18 18 17 15 14 14 15 17 18 20 20 20 19 19 21 23 23 23 22 20 19 18 18 19 18 18 16 15 16 14 14 14 12 11 12 12 14 17 14 11 9 7 8 8 7 8 9 11 12 14 20 27 32 36 36 35 34 32 30 29 28 28 26 25 23 22 23 23 22 22 21 21 20 20 19 17 16 14 13 12 11 11 11
17 17 17 17 17 15 12 13 14 15 18 19 20 20 21 21 21 23 24 24 23 21 21 21 21 20 20 20 19 19 17 15 16 14 12 12 13 12 15 18 17 14 11 8 7 7 7 6 7 11 12 14 17 20 26 33 37 36 35 33 32 30 28 28 27 26 25 23 23 23 22 21 20 20 20 19 18 17 16 15 13 12 12 12 12
16 15 15 16 16 14 12 11 12 13 14 16 17 19 21 21 22 23 23 24 25 24 23 22 21 21 21 21 21 21 19 17 16 13 14 15 15 14 14 16 19 18 13 9 7 7 8 7 7 10 12 15 18 18 20 26 34 37 36 35 33 32 30 29 28 27 26 25 23 23 23 22 21 20 20 20 19 17 17 15 14 13 12 12 13
15 14 14 15 15 14 13 11 11 12 12 13 15 17 19 21 22 23 22 23 26 27 26 23 21 21 21 22 23 23 21 18 17 15 15 17 18 17 16 16 19 20 15 10 9 9 9 9 9 10 12 16 18 18 19 21 28 34 36 37 35 33 32 31 30 29 28 26 24 24 24 23 22 22 21 21 20 19 18 17 15 14 13 13 13
15 15 15 15 15 15 14 13 12 12 13 13 14 16 18 20 21 22 21 22 25 26 27 26 23 21 21 22 23 24 23 20 19 18 16 18 18 17 18 17 17 20 18 13 11 9 8 9 10 11 13 17 18 18 19 20 23 28 32 35 36 35 34 33 32 31 30 29 27 25 24 24 24 23 23 22 21 21 20 18 17 16 15 15 15
15 15 16 15 16 15 15 15 15 15 15 15 15 16 18 19 19 19 21 22 24 25 26 28 27 23 20 21 23 24 24 22 22 20 18 19 19 17 17 16 14 17 18 15 13 11 9 9 10 12 14 16 18 18 18 19 20 23 27 30 32 34 34 34 34 33 33 32 30 29 27 26 25 25 24 23 22 22 21 20 19 18 17 16 16
15 15 16 15 15 15 15 16 16 17 16 16 16 17 18 19 18 18 20 21 23 24 24 26 29 28 23 22 22 23 23 22 23 22 21 21 19 18 18 18 17 16 15 13 12 13 13 12 12 13 14 14 16 18 18 17 17 19 23 25 27 29 31 32 33 34 34 33 33 32 31 29 28 27 26 25 24 24 23 21 20 19 19 18 17
16 15 16 15 15 15 15 15 15 16 16 16 17 17 18 19 19 18 18 19 21 23 23 24 28 31 29 26 24 23 23 22 23 24 23 21 20 19 20 22 22 19 18 15 12 13 15 14 14 15 15 13 15 17 17 17 17 18 20 21 23 26 28 29 30 32 33 33 34 34 33 32 30 28 28 27 26 25 24 22 21 21 20 19 19
17 16 16 16 15 15 15 14 14 14 15 16 16 17 18 18 18 18 17 18 19 20 22 23 25 29 31 31 28 25 25 25 24 24 23 22 21 20 22 24 23 21 20 18 17 17 16 16 16 17 17 16 16 16 16 17 17 18 19 19 21 24 26 27 28 29 30 32 33 33 34 34 32 30 29 28 26 26 25 23 22 21 21 20 20
18 17 16 16 15 14 14 13 13 12 13 14 15 16 17 17 16 16 16 17 18 18 20 22 23 25 28 29 30 30 30 29 27 26 24 24 23 22 22 22 21 22 22 21 21 21 19 19 19 19 19 18 18 18 18 17 15 17 20 20 20 22 24 25 26 27 28 30 31 32 33 33 33 31 30 29 27 26 25 24 24 23 22 21 21
18 18 17 17 15 14 14 13 12 11 11 13 14 14 15 15 15 15 15 16 16 16 18 20 22 23 24 25 28 31 32 32 32 31 29 28 27 26 26 24 22 23 23 23 23 23 23 23 23 22 21 21 20 20 21 21 17 17 20 20 20 21 23 24 25 27 28 28 29 31 32 33 34 33 32 31 30 28 26 26 25 24 23 22 21
20 19 18 17 15 14 13 13 11 10 11 12 12 13 14 14 14 14 16 16 15 15 16 17 19 21 22 23 25 26 28 30 32 33 33 33 32 31 31 30 29 28 27 26 25 26 26 26 28 27 24 23 22 21 22 22 19 19 19 18 20 21 22 26 27 26 27 27 28 28 30 32 33 34 33 33 32 31 29 28 26 26 25 24 23
23 21 19 17 16 14 14 13 12 11 11 11 11 13 14 15 15 15 16 16 15 16 15 16 18 19 21 22 23 24 24 25 28 29 31 32 32 33 33 33 34 34 33 32 30 29 28 28 29 29 27 26 25 24 24 23 21 21 21 19 21 22 20 24 26 25 26 27 27 27 28 30 32 33 33 33 33 32 31 30 29 29 28 27 25
23 21 20 18 16 14 14 13 12 12 12 12 12 12 14 15 16 16 17 17 15 16 17 16 17 18 20 20 21 22 22 23 25 25 26 27 29 30 31 31 32 33 34 35 34 33 32 31 29 29 29 28 28 26 26 27 25 24 25 23 22 22 19 21 23 22 22 24 26 27 27 28 29 31 32 32 33 32 31 31 31 32 31 30 28
23 22 20 19 17 14 14 14 13 13 13 13 12 11 13 14 15 15 16 17 16 16 17 18 18 18 19 19 20 21 21 22 23 24 25 25 27 27 28 28 28 29 30 32 34 34 35 34 31 29 29 29 30 29 28 29 28 26 28 27 24 22 19 19 19 18 18 20 24 26 27 28 29 30 30 30 31 32 31 31 32 33 34 33 31
24 22 20 18 16 14 14 15 14 13 11 11 10 9 10 10 11 13 13 14 15 15 16 16 17 17 18 18 19 20 21 22 22 23 24 25 26 26 27 28 28 28 28 29 30 32 34 35 34 32 31 30 29 29 30 31 30 29 29 29 28 26 22 18 17 17 17 17 20 22 25 27 28 30 30 30 30 31 32 32 33 34 35 35 34
24 22 20 18 16 15 15 16 15 13 9 8 8 7 7 7 8 9 9 11 11 11 13 14 15 15 16 17 17 18 19 20 21 22 23 24 25 25 26 27 28 29 29 29 29 29 31 33 35 34 33 32 30 30 31 32 32 32 31 30 31 30 25 20 18 18 19 18 17 19 21 23 25 28 31 32 31 32 33 33 32 33 35 36 35
23 21 21 18 17 16 16 15 14 12 9 8 8 7 7 6 6 7 7 8 9 9 10 12 14 15 16 16 16 17 17 18 19 20 21 22 23 24 25 26 28 29 30 31 30 29 29 29 32 35 35 34 33 32 31 31 34 34 34 32 31 30 28 24 20 18 20 21 19 18 18 20 22 25 28 32 33 33 34 33 32 32 34 35 35
21 20 20 18 17 17 16 15 14 13 10 10 10 9 9 8 8 8 9 9 10 10 11 11 13 15 16 17 17 17 18 18 18 19 19 20 21 22 23 24 26 28 30 31 31 31 30 29 30 32 34 34 34 34 32 32 33 34 34 34 32 32 32 29 25 23 23 24 25 23 20 19 21 24 26 29 32 33 34 34 33 32 32 33 34
21 20 19 18 18 18 16 15 15 15 12 11 11 10 10 10 10 11 12 13 13 14 14 14 13 15 16 18 19 19 18 19 19 19 19 19 20 21 21 22 24 26 28 29 31 32 32 31 30 30 31 32 33 34 33 34 34 34 34 34 33 34 35 31 28 28 27 26 28 29 27 24 22 23 23 23 26 31 33 34 34 33 32 32 32
22 21 20 19 18 19 18 16 17 16 13 12 12 11 12 12 13 14 14 16 16 16 17 17 16 17 17 18 19 20 20 20 20 20 20 20 20 21 21 22 22 23 25 27 29 30 31 32 32 32 32 32 32 33 33 34 35 35 36 36 36 36 37 34 31 31 31 30 30 30 29 25 22 23 24 22 22 26 29 31 33 33 33 34 34
22 22 21 19 18 19 19 18 19 19 16 14 14 13 13 14 15 16 17 18 18 18 19 19 18 18 18 18 18 19 21 21 21 21 20 20 21 21 22 22 23 23 23 25 26 28 29 31 32 33 34 34 34 33 33 34 35 36 36 38 38 38 38 37 35 33 33 33 34 34 32 28 24 22 23 23 23 25 26 27 30 31 32 35 37
Wind_Direction
196 219 229 234 248 253 247 254 266 280 301 9 29 30 54 73 74 73 63 59 56 51 44 40 51 54 36 35 85 112 112 108 107 108 110 113 121 136 145 146 148 148 147 148 151 156 159 160 158 160 162 159 156 153 153 152 150 149 149 147 147 149 147 145 145 148 149 148 151 151 148 146 144 141 137 133 131 128 126 125 123 121 118 113 107
207 219 222 229 237 248 244 238 246 259 265 326 33 29 43 68 82 95 73 64 65 62 60 45 47 62 53 31 39 80 103 105 106 108 110 112 118 135 147 151 151 151 150 150 152 156 160 162 160 162 162 159 155 154 153 152 151 150 150 148 147 150 149 147 147 148 149 151 154 152 150 149 147 143 139 135 134 131 129 127 125 124 120 114 109
218 223 225 227 221 239 241 227 228 245 250 242 54 27 6 46 100 129 125 79 68 66 69 57 46 57 64 42 25 35 59 97 105 110 113 112 119 131 144 153 156 157 155 153 154 156 162 163 160 162 161 158 156 154 153 152 151 151 150 149 149 152 151 150 149 149 153 156 156 154 153 153 149 145 141 138 136 133 131 129 128 126 121 116 110
210 223 229 232 225 239 242 231 217 228 240 232 245 11 359 40 119 141 142 115 87 76 70 60 52 49 58 47 17 20 10 60 104 111 119 121 128 133 137 147 154 161 160 157 156 156 162 163 160 161 159 157 156 154 152 151 153 152 151 151 152 154 153 153 152 152 157 159 158 156 156 156 151 146 142 140 137 134 133 132 130 128 123 117 110
202 215 221 228 229 238 239 238 222 222 237 237 254 319 63 119 142 158 153 134 118 91 74 61 59 50 55 47 3 0 0 282 151 114 118 126 136 141 136 142 152 162 164 161 158 158 162 163 160 159 159 158 156 154 153 152 154 154 152 153 155 156 156 156 154 154 161 162 160 158 157 157 153 148 145 141 139 137 135 134 133 131 127 120 112
205 214 220 221 216 229 231 236 235 233 241 242 255 260 133 163 166 178 170 152 149 111 79 80 67 48 55 55 13 283 227 218 229 163 142 134 138 147 145 148 156 160 165 162 160 159 161 162 160 160 159 158 156 154 153 153 155 155 154 156 158 158 159 159 155 156 163 164 163 160 158 157 155 151 147 144 141 139 138 138 137 135 129 122 114
208 206 215 222 211 227 229 238 250 252 257 265 281 299 276 227 195 181 181 160 150 152 176 202 123 8 27 57 69 215 265 233 218 187 179 160 146 154 157 162 162 162 166 163 161 161 160 161 161 161 160 159 157 155 154 155 157 156 155 158 160 161 161 162 157 160 167 166 166 164 160 159 157 155 151 148 144 142 142 141 141 139 134 126 117
204 192 205 223 215 232 240 250 264 274 286 305 310 304 293 280 219 174 186 168 140 169 199 221 191 289 327 45 84 118 147 250 211 176 167 166 159 162 167 171 170 168 170 166 163 161 159 160 162 162 161 160 159 157 156 157 158 156 156 158 162 164 164 164 160 164 169 167 169 167 164 162 160 158 156 152 148 147 146 145 145 144 141 134 122
196 201 206 211 213 229 245 255 266 279 298 308 307 303 293 278 232 193 199 183 155 179 206 223 206 259 273 267 86 114 123 225 230 208 184 175 175 175 175 175 179 178 176 171 165 161 157 161 163 163 163 162 160 159 157 158 160 157 157 159 164 167 167 166 163 167 172 170 170 169 167 165 163 163 161 158 155 153 151 149 149 150 147 141 129
203 225 221 216 221 232 246 256 266 280 293 300 302 300 291 275 248 215 208 190 173 185 204 221 232 256 253 250 255 124 119 213 235 215 189 185 198 205 193 186 186 183 181 174 167 162 157 162 166 165 166 163 162 161 159 160 161 158 158 162 165 169 170 168 166 169 172 172 171 171 172 171 169 168 167 164 162 160 158 157 155 154 151 145 134
228 237 236 230 230 237 247 255 263 272 279 288 294 293 282 265 258 240 210 193 195 197 200 211 240 258 255 254 250 219 158 216 227 202 193 194 214 231 218 202 190 184 182 174 167 164 159 164 169 168 168 166 164 163 161 162 163 160 160 164 167 170 171 171 169 168 171 174 172 173 175 176 175 172 172 171 169 168 167 167 164 160 155 147 135
245 244 245 241 238 242 248 257 263 266 270 280 285 283 273 261 255 252 237 209 218 212 210 213 236 253 252 248 240 222 204 224 226 205 211 210 212 230 227 207 187 182 181 174 168 166 164 167 172 172 170 168 166 165 164 163 163 161 162 165 169 171 171 172 171 167 170 175 172 173 176 177 179 177 176 176 177 177 175 175 173 171 163 151 139
251 252 254 253 250 248 248 255 258 260 265 271 272 268 267 268 259 254 261 266 251 230 228 228 241 247 241 244 237 223 215 232 236 216 223 222 209 220 229 214 186 179 179 175 170 170 170 171 175 176 173 171 168 167 166 164 164 163 164 167 170 172 173 173 172 171 173 175 171 172 176 178 181 181 180 180 182 184 182 182 180 180 174 161 147
253 259 263 263 257 247 244 250 251 252 257 261 263 261 263 267 260 258 261 268 268 252 243 240 247 249 240 244 237 225 223 240 245 225 229 229 213 211 222 219 191 178 178 176 173 174 176 175 178 179 177 174 171 170 168 165 165 166 166 168 170 173 177 176 175 176 176 175 172 172 176 178 181 181 181 182 186 190 188 188 187 186 185 177 162
258 270 272 271 264 251 245 252 254 250 252 257 259 259 263 265 261 259 259 262 266 260 252 250 253 255 250 244 229 224 223 233 248 234 232 226 207 206 216 213 194 178 175 176 175 176 178 179 180 182 181 176 173 172 169 167 167 168 169 169 171 173 179 181 180 181 179 176 174 175 179 178 180 182 181 184 188 192 192 192 191 191 192 190 183
263 274 279 277 273 258 248 251 257 254 252 257 260 262 265 268 267 261 256 253 256 256 252 252 254 257 256 244 231 227 220 217 235 233 223 209 192 199 210 202 189 176 171 174 176 176 179 181 183 184 183 178 175 174 170 169 169 171 171 171 172 175 180 183 184 186 182 178 176 179 183 180 181 182 180 183 190 193 193 193 193 194 196 200 200
268 272 275 276 281 270 250 245 250 254 253 256 263 267 269 269 267 260 253 246 244 248 247 247 249 253 255 242 234 231 223 217 214 203 207 195 188 197 203 196 186 174 168 170 175 176 178 182 185 186 185 180 177 176 173 171 172 174 174 173 174 177 181 183 187 191 188 181 179 181 184 183 183 182 179 181 189 192 193 193 192 194 198 204 207
279 275 273 270 275 278 256 244 245 249 252 255 261 265 267 264 260 256 251 242 239 240 242 244 244 244 242 235 234 232 222 214 197 169 212 187 187 197 193 188 186 175 166 167 173 176 177 182 186 187 186 182 178 177 175 173 174 176 176 176 178 180 181 184 188 192 193 185 181 184 185 186 185 184 180 179 187 191 191 191 191 193 196 203 209
305 287 276 272 270 269 260 248 243 245 245 249 255 257 260 257 255 254 247 242 239 237 239 244 243 238 231 230 235 233 220 213 186 159 193 179 178 184 175 179 184 178 169 168 172 175 177 180 184 187 186 182 180 178 177 176 176 177 180 180 182 183 183 187 188 192 195 185 182 187 187 187 187 186 182 179 185 190 190 190 190 191 194 201 206
317 307 292 279 268 265 262 259 252 246 242 244 250 254 257 257 256 251 245 240 237 236 238 242 241 235 230 231 233 222 213 219 175 160 166 167 175 171 161 170 183 181 175 173 173 175 176 179 181 185 186 183 181 179 178 178 178 179 182 183 185 185 186 190 191 195 195 184 184 189 188 189 187 187 184 181 184 188 191 191 192 193 196 202 204
309 307 301 288 273 266 260 259 258 252 246 246 250 254 257 259 257 251 245 240 236 235 236 238 237 234 235 234 225 200 192 178 149 165 159 159 164 159 158 162 179 183 183 181 178 178 176 177 180 182 185 185 182 181 180 180 181 181 184 185 187 187 189 193 194 199 197 186 188 191 191 194 191 189 187 184 186 187 192 196 198 200 205 211 209
304 300 296 291 281 273 261 255 253 251 250 249 250 251 254 257 259 256 250 243 239 238 239 243 243 243 245 236 211 186 187 180 169 172 168 163 150 148 161 162 177 191 194 189 183 182 178 177 180 182 184 186 184 182 181 181 182 183 186 187 189 190 191 195 197 203 200 188 191 193 193 197 196 194 190 189 190 189 194 200 204 208 213 219 218
304 300 296 290 282 278 273 264 255 251 250 250 251 251 251 253 258 259 253 247 244 243 246 250 252 249 245 235 195 180 175 180 198 181 169 157 139 141 165 175 200 211 211 201 191 186 181 178 180 183 185 186 186 184 182 182 183 185 188 187 190 192 194 198 199 204 202 192 196 197 196 199 199 198 195 195 196 195 198 204 209 212 217 225 229
302 300 294 290 284 277 276 275 265 254 249 247 249 253 252 252 255 257 253 249 248 247 248 250 251 248 244 236 189 183 179 184 204 191 166 144 140 155 171 203 224 227 229 218 205 193 185 180 181 184 186 187 187 185 184 183 184 187 190 189 191 194 197 200 202 206 202 197 202 202 200 202 202 202 201 201 202 203 205 209 212 216 222 229 237
295 294 290 289 284 275 275 276 271 260 252 247 245 248 250 253 252 253 254 252 247 244 244 243 241 242 241 231 201 197 194 189 204 201 173 149 152 168 181 221 236 240 247 239 224 207 193 184 182 185 186 188 188 187 186 185 186 189 192 192 194 197 199 201 205 209 202 199 206 208 205 204 204 204 205 205 207 207 209 215 217 219 226 233 241
291 294 289 284 281 279 279 277 274 267 259 247 240 243 246 251 251 253 255 251 247 241 238 234 227 232 239 237 222 216 198 184 205 209 186 171 166 170 189 219 236 252 260 255 245 224 209 194 185 186 189 189 189 189 188 188 188 191 194 195 197 200 201 202 206 211 204 201 207 211 210 208 207 207 207 208 210 210 212 218 221 223 229 236 244
291 294 287 279 278 281 283 281 279 271 263 252 242 240 241 245 247 252 254 248 246 240 236 233 225 229 241 242 229 221 212 193 203 203 188 189 182 176 191 214 226 248 266 267 262 239 222 210 194 189 192 192 190 191 191 191 191 193 195 197 201 203 202 205 209 211 206 204 208 211 213 211 210 210 210 209 211 213 213 219 223 226 231 238 246
288 289 284 280 280 281 282 279 276 270 266 263 256 244 238 238 235 234 245 246 243 238 236 235 230 230 235 235 224 222 227 209 201 203 195 192 189 184 193 215 223 231 260 273 266 248 232 220 211 202 197 196 194 194 194 194 194 196 198 199 203 206 205 208 213 213 207 203 206 211 213 212 211 212 212 211 212 214 214 219 224 230 235 242 249
286 284 282 281 280 280 279 273 268 267 266 266 262 254 246 240 233 228 233 238 236 237 239 235 231 229 228 231 228 226 229 215 200 207 205 198 201 201 202 212 218 223 236 256 247 239 241 231 225 222 212 205 201 198 197 197 198 199 201 202 205 207 207 210 215 217 212 202 204 210 213 212 213 213 214 213 213 214 216 220 226 232 239 246 253
283 281 282 282 281 279 276 270 263 262 262 263 264 265 261 252 243 238 236 234 230 230 234 234 233 231 230 231 228 224 228 226 214 206 204 207 213 212 213 214 212 212 214 222 227 221 235 242 236 238 236 228 216 207 203 201 201 202 204 206 208 209 209 212 216 218 218 209 205 210 212 213 215 215 217 218 216 216 219 223 228 235 241 248 253
280 280 280 279 281 281 274 267 261 258 259 263 267 268 265 259 250 244 240 236 231 226 227 231 234 233 232 232 228 223 223 229 226 207 198 212 215 212 220 220 214 214 207 200 218 219 226 242 242 243 245 246 238 223 212 207 205 206 207 209 211 212 212 214 217 218 220 217 211 214 216 216 217 219 220 222 222 221 223 227 233 240 245 252 254
280 280 280 278 280 279 274 266 261 260 260 264 268 266 265 262 255 250 245 237 233 229 226 229 235 235 233 233 232 227 223 223 228 215 202 216 223 218 219 222 222 221 208 193 203 215 226 233 242 251 253 254 249 239 229 217 210 208 210 212 214 215 215 216 219 221 223 223 218 218 223 224 223 224 225 227 228 228 230 233 238 245 251 256 259
280 281 277 276 276 277 275 269 266 264 265 267 269 269 268 264 259 258 252 240 235 232 228 227 233 237 233 233 233 231 227 222 227 225 212 216 222 220 218 223 230 225 209 194 194 205 227 233 240 254 258 258 254 248 247 237 221 213 211 213 215 217 219 219 221 224 227 228 226 223 226 230 231 231 231 232 234 235 237 238 242 248 252 257 260
281 278 274 273 272 275 275 274 275 272 273 273 273 273 270 266 263 262 256 246 240 235 230 226 227 234 234 233 232 231 230 224 223 226 223 225 224 224 224 221 222 219 210 204 200 207 228 233 239 246 250 258 261 258 258 253 238 223 217 216 216 218 220 222 224 226 231 234 235 233 230 233 236 236 235 236 238 239 241 242 245 249 251 255 259
279 274 275 274 272 275 277 279 280 279 280 278 276 274 271 270 267 262 256 250 246 240 234 228 226 229 231 233 233 232 232 228 224 223 225 229 227 229 234 233 228 222 219 218 216 220 231 238 242 242 243 253 261 261 261 260 251 235 225 222 222 222 221 223 226 228 231 235 240 242 241 238 240 243 243 241 240 242 245 246 248 249 250 253 256
281 275 276 275 275 277 279 281 281 281 281 277 275 272 270 270 267 261 255 251 248 246 240 231 229 228 227 229 232 235 234 230 227 227 229 231 229 229 235 244 248 245 241 239 234 232 238 244 247 246 242 245 252 257 259 261 259 246 234 230 231 231 227 226 228 230 233 235 239 243 246 246 244 244 247 247 246 246 248 248 250 250 250 252 253
282 276 278 278 279 281 282 284 281 280 276 272 270 267 267 265 264 261 256 252 248 249 247 238 233 231 230 229 229 233 236 235 232 232 234 235 234 231 233 241 245 247 250 252 247 242 245 244 244 248 247 244 245 251 258 260 257 249 240 238 240 241 238 233 232 233 235 237 239 241 244 248 248 246 247 248 249 250 252 251 251 252 252 252 253
282 279 280 281 283 287 287 286 282 278 272 267 264 261 260 259 260 260 256 253 248 248 249 245 241 237 236 234 232 231 233 236 237 236 237 238 238 236 236 240 244 245 248 249 245 242 246 246 245 248 250 250 248 251 256 260 261 258 248 241 242 247 247 243 239 237 238 240 241 243 245 248 250 250 250 249 249 250 253 254 254 253 254 254 254
282 282 283 285 288 291 290 289 284 278 270 265 262 259 257 256 257 258 257 256 252 249 249 250 249 246 243 240 238 236 235 237 239 240 242 243 244 244 243 243 245 246 245 243 244 243 244 246 244 242 246 247 247 250 252 252 258 262 259 252 247 248 250 250 248 245 243 243 244 246 248 250 252 252 253 253 252 250 252 254 256 255 255 255 254
282 283 286 288 291 292 289 288 284 278 271 264 264 262 261 260 260 260 259 258 257 253 252 254 254 254 254 249 245 243 242 241 242 243 246 248 249 249 250 249 249 250 249 245 245 245 244 245 244 239 240 243 244 247 249 250 249 250 260 266 263 255 251 253 252 251 249 247 248 250 252 254 255 254 254 255 255 254 252 252 254 256 255 254 254
282 283 285 288 291 291 286 284 282 276 270 265 267 268 268 269 267 267 266 262 262 260 257 257 259 261 261 259 255 251 249 247 246 247 249 251 252 251 253 253 253 254 253 251 248 246 245 246 246 242 239 241 245 246 246 250 249 248 258 269 272 265 254 253 253 255 256 254 252 253 255 257 257 256 255 255 256 257 256 254 253 254 254 253 252
281 281 282 285 288 287 281 282 280 273 270 268 267 268 271 273 272 273 273 270 270 268 264 259 259 260 261 263 263 262 259 255 253 252 252 253 254 254 254 254 255 254 254 253 251 250 250 248 247 245 242 242 245 247 248 251 249 251 260 265 269 269 257 254 255 255 259 260 258 258 259 261 261 260 259 258 257 256 257 256 255 255 255 253 252
276 276 278 283 285 280 276 278 278 275 271 264 263 265 268 272 274 276 277 277 276 274 273 268 265 262 260 261 265 266 265 262 260 258 257 257 256 256 257 256 255 255 255 254 253 252 253 253 249 245 245 245 246 247 250 254 255 255 260 258 260 266 259 256 260 261 262 264 263 262 262 263 264 264 264 263 261 258 256 255 255 256 256 255 253
269 272 276 282 282 274 270 273 275 275 270 263 261 260 262 266 271 273 275 279 280 279 278 275 273 270 265 262 262 265 266 265 266 265 263 261 259 258 258 258 258 257 257 255 254 253 253 255 254 249 248 247 248 250 251 255 258 256 257 253 248 255 259 259 266 269 268 266 266 266 266 265 265 265 265 266 265 263 260 256 254 254 255 255 253
264 269 274 278 277 267 266 270 273 273 265 259 256 249 253 258 263 270 274 277 281 283 283 282 280 279 276 270 265 265 266 266 267 268 267 266 264 263 260 259 259 259 259 258 256 254 253 254 255 254 253 252 252 253 251 254 257 256 255 252 247 251 257 257 260 264 265 267 269 271 272 271 270 267 265 265 265 264 263 260 258 256 255 255 254
260 266 271 271 269 264 264 267 268 268 254 240 239 231 236 244 252 262 269 276 281 284 286 288 288 287 285 282 277 273 272 270 270 270 269 268 267 266 264 262 260 259 260 260 259 257 255 253 253 253 253 255 256 254 251 251 255 257 254 251 251 253 252 245 244 254 262 266 270 273 274 276 275 273 270 267 265 264 263 262 261 260 258 257 256
255 260 265 265 265 265 266 263 257 256 244 228 231 229 231 239 252 262 269 280 287 287 289 293 294 294 292 290 288 284 281 278 275 274 274 272 270 268 266 265 263 262 261 261 261 260 258 254 253 253 253 254 255 256 256 253 253 256 254 253 253 249 243 240 242 252 260 262 266 270 273 275 277 276 274 272 270 267 265 264 263 262 262 261 260
250 255 260 263 262 263 264 256 247 249 243 233 238 244 246 250 261 273 277 282 289 291 292 296 298 299 297 295 292 290 288 286 282 280 278 277 275 272 269 267 265 264 263 262 262 261 261 259 256 254 254 254 255 255 256 254 254 255 255 255 253 246 241 242 246 250 252 256 261 263 265 269 274 276 276 276 276 274 270 266 262 261 260 261 262
246 251 258 262 258 256 256 248 244 248 244 239 245 252 256 260 265 274 280 282 287 290 289 289 291 295 299 299 296 293 290 289 288 286 284 282 280 278 275 271 268 266 266 265 263 262 262 262 261 259 256 255 255 254 253 254 254 255 256 255 253 251 248 247 250 251 249 249 254 260 262 262 268 276 279 279 280 279 276 272 267 262 259 258 258
242 249 256 257 250 246 247 246 245 249 245 243 250 255 262 270 272 276 282 284 285 289 290 289 290 292 295 296 296 295 293 290 288 288 288 286 285 283 282 278 275 271 269 268 267 265 263 263 262 262 261 258 256 255 254 254 253 253 255 255 253 253 253 252 253 253 251 248 248 254 261 263 267 275 278 279 282 282 281 281 276 269 263 259 257
242 250 253 250 244 242 245 245 246 250 249 246 254 260 266 273 275 277 281 283 284 287 288 288 288 289 289 290 291 292 293 293 291 289 289 289 287 286 285 284 282 278 274 271 270 269 267 265 263 263 263 262 259 257 255 253 252 252 253 254 254 252 252 255 255 252 250 250 247 248 256 264 266 268 274 281 286 285 284 284 281 275 268 262 259